Regional Weather Roundup
Issued by NWS

Home | Current Version | Previous Version | Graphics & Text | Print | Product List | Glossary On
Versions: 1 2 3 4 5 6 7 8 9 10 11 12 13 14 15 16 17 18 19 20 21 22 23 24 25 26 27 28 29 30 31 32 33 34 35 36 37 38 39 40 41 42 43 44 45 46 47 48 49 50
000
ASUS43 KLSX 261459
RWRMO

WEATHER SUMMARY FOR MISSOURI
NATIONAL WEATHER SERVICE SPRINGFIELD MO
1000 AM CDT SUN APR 26 2015

NOTE: "FAIR" INDICATES FEW OR NO CLOUDS BELOW 12,000 FEET WITH NO
       SIGNIFICANT WEATHER AND/OR OBSTRUCTIONS TO VISIBILITY.
       CURRENT SKY AND/OR WEATHER CONDITIONS ARE NOT AVAILABLE FOR
       CHILLICOTHE AND FARMINGTON.

MOZ001>031-035>038-043-044-053-054-261600-
...NORTHERN AND WESTERN MISSOURI...

CITY           SKY/WX    TMP DP  RH WIND       PRES   REMARKS
KANSAS CTY INT CLOUDY    49  43  80 NE16      29.97R
KANSAS C DTWN  CLOUDY    51  42  71 E14G23    29.96S
LEE`S SUMMIT   CLOUDY    49  42  77 E15       29.96R
ST JOSEPH      CLOUDY    48  42  80 E9        29.99S
CHILLICOTHE      N/A     51  39  63 E7        30.01R
KIRKSVILLE     SUNNY     51  38  60 E7        30.01R

$$
MOZ066>068-077>081-088>096-101>105-261600-
...SOUTHWEST MISSOURI...

CITY           SKY/WX    TMP DP  RH WIND       PRES   REMARKS
SPRINGFIELD    CLOUDY    54  47  77 NE15      29.88R
JOPLIN         CLOUDY    53  49  86 NE12      29.89R

$$
MOZ032>034-039>042-045>050-055>058-069>072-261600-
...CENTRAL MISSOURI...

CITY           SKY/WX    TMP DP  RH WIND       PRES   REMARKS
COLUMBIA       CLOUDY    49  44  83 NE10      29.96S HAZE
JEFFERSON CITY CLOUDY    50  43  77 NE6       29.96R
ROLLA          CLOUDY    46  44  93 NE10      29.92R FOG
SEDALIA        CLOUDY    49  44  83 NE13      29.97R
WHITEMAN AFB   CLOUDY    47  45  93 NE10      29.95R FOG
OSAGE BEACH    CLOUDY    48  43  81 NE8       29.95R

$$
MOZ051-052-059>065-261600-
...EAST CENTRAL MISSOURI...

CITY           SKY/WX    TMP DP  RH WIND       PRES   REMARKS
ST LOUIS INTL  MOSUNNY   54  37  52 NE13      29.95R
SPIRIT OF STL  MOSUNNY   52  39  61 NE9       29.95R
ST CHARLES     SUNNY     54  37  52 NE13      29.95R

$$
MOZ072>076-082>087-097>100-106>115-261600-
...SOUTH CENTRAL AND SOUTHEAST MISSOURI...

CITY           SKY/WX    TMP DP  RH WIND       PRES   REMARKS
CAPE GIRARDEAU CLOUDY    50  46  86 NE10      29.89R
FARMINGTON     CLOUDY    46  45  93 N10       29.95R
POPLAR BLUFF   CLOUDY    53  45  74 NE12      29.88R
WEST PLAINS    CLOUDY    48  44  86 NE10      29.90R

$$



USA.gov is the U.S. government's official web portal to all federal, state and local government web resources and services.